星链-2514 (STARLINK-2514 )

导读

STARLINK-2514是美国SpaceX公司星链星座中的V1.5版本卫星,于2021年4月29日发射入轨。作为第一代星链组网卫星,它重约295公斤,配备氪离子霍尔推进器与相控阵天线,运行在近地轨道,为全球提供低延迟宽带卫星互联网服务。星链星座通过大规模低轨卫星部署,实现了全球覆盖,该卫星目前处于在轨运行状态,是星链全球通信网络的组成单元,支撑民用互联网接入与部分特殊场景通信服务,设计寿命约5年。

基本信息
目录编号:
48331
目录名称:
STARLINK-2514
国际标识:
2021-036BH
轨道中心:
EARTH
卫星名称:
星链-2514
卫星全名:
星链-2514 (STARLINK-2514 )
卫星状态:
在轨 (已飞行1961 天)
发射日期:
2021-04-29 UTC
国别 :
美国 (US)
星等 :
--
该卫星已列入 空间交会检测服务 Space Conjunction Data Service (SCDS) ,当前飞行风险评估等级: 无高风险
轨道信息
数据来源 国际轨道数据
星历时间: 2026-09-10T18:48:15+0800
1天前
查看轨道信息
半长轴: 6823.831km
偏心率: 0.0000526
轨道倾角: 53.157°
近地点辐角 283.123°
升交点赤经 318.462°
平近点角 76.972°
近地点: 445.335km
远地点: 446.053km
周期: 93.498分钟
每日圈数: 15.401406
详细信息
固有亮度:
5
最大亮度:
2.5
卫星平台:
Starlink V1.0
覆盖范围:
全球
运营商:
太空探索技术公司
运营商所在国:
美国
制造商(研发单位):
太空探索技术公司
制造商所在国:
美国
使用方式:
暂无
卫星简介
星链(Starlink)计划是由太空探索技术公司(SpaceX)提出的一个巨型低轨卫星互联网星座项目,计划在2019年至2024年间在太空搭建由约1.2万颗卫星组成的“星链”网络,其中1584颗将部署在地球上空550千米处的近地轨道,并从2020年开始工作。该卫星仍在工作。
2D轨道图
3D轨道图
轨道高度分析图
轨道倾角分析图
轨道综合分析图
查看轨道综合分析图
交会数据列表
事件ID 空间交会对象 最接近时刻(TCA) 交会距离 交会风险概率(CRP) 交会风险指数(CRI) 操作
CDM_260913-003004-833106-047421
ROCK (60474)
2026-09-13T
00:30:09+0000
2.291 km
极远距离
1.327377E-6 低风险 0.37
与全量物体交会距离演化趋势
与全量物体交会风险概率演化趋势